Location: Nairn
(57.5833°N, 3.8667°W)
Time: 03:37:34
(UTC+00:00)

NOSS 8 (A) - Pass Details

Date: 07 August 2020
Orbit: 372 x 1774 km, 63.3° (Epoch: 26 September)

Event Time Altitude Azimuth Distance (km) Brightness Sun altitude
Exits shadow 02:45:23 16° 229° (SW) 1,083 5.7 -10.3°
Maximum altitude 02:47:36 78° 145° (SE) 390 4.0 -10.1°
Drops below altitude 10° 02:50:39 10° 57° (ENE) 1,451 8.2 -9.9°
Sets 02:52:49 0° 57° (ENE) 2,403 9.6 -9.7°
